Orbital Elements at Epoch 2459200.5 (2020-Dec-17.0) TDB
Reference: JPL 12 (heliocentric ecliptic J2000)
Element | Value | Uncertainty (1-sigma) | Units |
e | .07637540089635159 | 5.6651e-08 | |
a | 2.809336891292922 | 2.8046e-08 | au |
q | 2.594772659967515 | 1.5964e-07 | au |
i | 6.5065081789623 | 5.8649e-06 | deg |
node | 108.9277368608322 | 5.5511e-05 | deg |
peri | 233.1129007766717 | 6.7814e-05 | deg |
M | 187.4450168757438 | 3.8105e-05 | deg |
tp | 2460024.883261250728 (2023-Mar-21.38326125) | 0.00018111 | TDB |
period | 1719.903816608723 4.71 | 2.5755e-05 7.051e-08 | d yr |
n | .2093140305426159 | 3.1344e-09 | deg/d |
Q | 3.023901122618329 | 3.0188e-08 | au |
|
| | Orbit Determination Parameters
Additional Information
|